Showing default

QIANFAN-30, 61563

Orbit data source: Space-Track

QIANFAN-30, 61563 is a Chinese payload satellite in LEO that was launched on Tue, 15 Oct 2024 UTC via a CHANG ZHENG 6A launch vehicle from the Taiyaun Space Center, China (TSC). Payload-class satellites include a variety of spacecraft equipped with specific instruments for various scientific and technological missions. These include communications satellites like Starlink; space stations such as the ISS; scientific satellites like the Hubble; Earth observation satellites from companies like Planet Labs, Umbra, and HawkEye 360; GPS; miniature CubeSats for education and research; and military/defense satellites.

Loading next visibility...
Identifier
61563, 2024-185M
Orbit
LEO
Country
Flag of CNCN / PRC
Related business
Manufacturer
GESIH/SECM
Mission
Operational Commercial Communications
Bus & Motor
QIANFAN, Unknown motor
Mass
267 kg wet, ~267 kg dry
Launch date (UTC)
2024-10-15 (1 year ago)
Launch vehicle
CHANG ZHENG 6A
Launch site
Taiyaun Space Center, China (TSC)
Object type
Payload
Rocket body
Debris
Shape & HBR
Box + 1 Pan, 5.0 m
Radar Cross Section
13.200 m², Large (>1 m²)

Expand to show TLE details & history
Last TLE update: 5 hours ago

TLE from 5 hours ago
0 QIANFAN-30
1 61563U 24185M   26070.95174636  .00000205  00000-0  30369-3 0  9998
2 61563  88.9742  71.6317 0009121 128.2464 231.9509 13.50021121 80100
Epoch: 2026-03-11T22:50Z
TLE epoch observation values (Epoch: 2026-03-11T22:50:30.885Z)
Latitude
Longitude
-80.6056°
Altitude
1,079.326 km
Speed
7.31 km/s
True Right ascension
04h 46m 31s
True Declination
0° 00' 00"
Sunlit
Object was in daylight at epoch
Visualization orbit readout
Latitude
Unknown
Longitude
Unknown
Altitude
Unknown
Speed
Unknown
Apparent Right ascension
Unknown
Apparent Declination
Unknown
Sunlit
N/A
Visualization observer readout
Local Sidereal Time
08:34:01
Azimuth
Unknown
Elevation
Unknown
Doppler factor
Unknown
Orbital elements
Apogee altitude
1,076.026 km
Perigee altitude
1,062.441 km
Semi-major axis
7,447.37 km
Eccentricity
0.00091
Inclination
88.9742°
RAAN
71.6317°
Arg. of periapsis
128.2464°
True anomaly
231.86865°
Mean anomaly
231.9509°
Eccentric anomaly
231.90977°
Mean motion
3.37706 °/min
Orbital period
106.6 mins
BSTAR
0.00030369
Loading maneuver chart data...
Computing Atmospheric mass density...
Loading historical data...
Loading historical data...
Loading historical data...
Loading historical data...
Loading historical data...
Loading historical data...
Loading historical data...

Documentation

Showing up to 5 results
|